Location: Carella
(45.8167°N, 9.2667°E)
Time: 05:15:18
(UTC+00:00)

Cosmos 2154 Rocket - Pass Details

Date: 30 March 2020
Orbit: 965 x 997 km, 82.9° (Epoch: 01 June)

Event Time Altitude Azimuth Distance (km) Brightness Sun altitude
Rises 20:08:23 0° 352° (N) 3,729 7.7 -23.4°
Reaches altitude 10° 20:10:55 10° 353° (N) 2,776 6.9 -23.8°
Maximum altitude 20:17:19 82° 81° (E) 1,013 3.9 -24.7°
Enters shadow 20:19:08 50° 161° (SSE) 1,248 4.2 -24.9°
